Creek Data

    Home     View Charts     View Raw Data     Messages

ID Distance Battery Voltage Battery Current Internal Temp Internal Humidity External Temp Solar Input rssi snr Time Stamp Record
64172 14.7 3.83 -5 40 48 42 0 -80 7 01/23/2026 05:00 AM 46926
64171 14.7 3.70 -5 40 48 41 0 -80 7 01/23/2026 04:45 AM 46925
64170 14.7 3.68 -5 39 48 41 0 -80 8 01/23/2026 04:30 AM 46924
64169 14.7 3.67 -5 38 49 40 0 -81 8 01/23/2026 04:15 AM 46923
64168 14.7 3.78 -5 37 49 39 0 -81 8 01/23/2026 04:00 AM 46922
64167 14.7 3.69 -5 37 49 38 0.1 -80 8 01/23/2026 03:45 AM 46921
64166 14.7 3.69 -5 37 49 38 0.1 -81 8 01/23/2026 03:30 AM 46920
64165 14.7 3.69 -5 36 49 38 0.1 -81 7 01/23/2026 03:15 AM 46919
64164 14.7 3.83 -5 36 49 37 0 -82 7 01/23/2026 03:00 AM 46918
64163 14.7 3.79 -5 36 49 37 0.1 -83 7 01/23/2026 02:45 AM 46917
64162 14.7 3.85 -5 36 49 37 0 -83 7 01/23/2026 02:30 AM 46916
64161 14.7 3.79 -5 36 50 37 0 -84 8 01/23/2026 02:15 AM 46915
64160 14.7 3.80 -5 36 49 37 0 -83 8 01/23/2026 02:00 AM 46914
64159 14.7 3.80 -5 37 49 38 0.1 -84 8 01/23/2026 01:45 AM 46913
64158 14.7 3.85 -5 38 49 38 0.1 -85 8 01/23/2026 01:30 AM 46912
64157 14.7 3.78 -5 37 49 40 0.1 -86 8 01/23/2026 01:15 AM 46911
64156 14.7 3.83 -5 37 50 40 0.1 -87 8 01/23/2026 01:00 AM 46910
64155 14.7 3.68 -5 37 49 37 0 -86 8 01/23/2026 12:45 AM 46909
64154 14.7 3.83 -5 37 50 38 0 -85 8 01/23/2026 12:30 AM 46908
64153 14.7 3.68 -5 38 50 39 0 -78 8 01/23/2026 12:15 AM 46907
64152 14.7 3.83 -5 38 49 40 0 -76 9 01/23/2026 12:00 AM 46906
64151 14.7 3.68 -5 38 49 40 0.1 -76 9 01/22/2026 11:45 PM 46905
64150 14.7 3.84 -5 39 49 39 0 -75 9 01/22/2026 11:30 PM 46904
64149 14.7 3.68 -5 39 50 41 0 -74 9 01/22/2026 11:15 PM 46903
64148 14.7 3.85 -5 38 50 40 0.1 -76 9 01/22/2026 11:00 PM 46902